Time,TemperatureF,DewpointF,PressureIn,WindDirection,WindDirectionDegrees,WindSpeedMPH,WindSpeedGustMPH,Humidity,HourlyPrecipIn,Conditions,Clouds,dailyrainin,SolarRadiationWatts/m^2,SoftwareType,DateUTC
2013-05-14 00:21:00,37.0,37.0,-100.00,SSW,195,1.0,4.0,100,0.00,,,0.03,0.000000,,2013-05-14 08:21:00,
2013-05-14 00:31:00,37.0,37.0,-100.00,SSW,195,1.0,4.0,100,0.00,,,0.03,0.000000,,2013-05-14 08:31:00,
2013-05-14 00:41:00,37.0,37.0,-100.00,SSW,195,1.0,4.0,100,0.00,,,0.03,0.000000,,2013-05-14 08:41:00,
2013-05-14 00:51:00,37.0,37.0,-100.00,SSW,195,1.0,4.0,100,0.00,,,0.03,0.000000,,2013-05-14 08:51:00,
2013-05-14 00:54:00,37.0,37.0,-100.00,WSW,257,2.0,4.0,100,0.01,,,0.03,0.000000,,2013-05-14 08:54:00,
2013-05-14 01:11:00,37.0,37.0,-100.00,WSW,257,2.0,4.0,100,0.01,,,0.03,0.000000,,2013-05-14 09:11:00,
2013-05-14 01:21:00,37.0,37.0,-100.00,WSW,257,2.0,4.0,100,0.01,,,0.03,0.000000,,2013-05-14 09:21:00,
2013-05-14 01:32:00,37.0,37.0,-100.00,WSW,257,2.0,4.0,100,0.01,,,0.03,0.000000,,2013-05-14 09:32:00,
2013-05-14 01:44:00,37.0,37.0,-100.00,WSW,257,2.0,4.0,100,0.01,,,0.03,0.000000,,2013-05-14 09:44:00,
2013-05-14 02:14:00,36.0,36.0,-100.00,SW,232,1.0,3.0,100,0.02,,,0.04,0.000000,,2013-05-14 10:14:00,
2013-05-14 02:25:00,36.0,36.0,-100.00,SW,232,1.0,3.0,100,0.02,,,0.04,0.000000,,2013-05-14 10:25:00,
2013-05-14 02:32:00,36.0,36.0,-100.00,SW,232,1.0,3.0,100,0.02,,,0.04,0.000000,,2013-05-14 10:32:00,
2013-05-14 02:42:00,36.0,36.0,-100.00,SW,232,1.0,3.0,100,0.02,,,0.04,0.000000,,2013-05-14 10:42:00,
2013-05-14 02:52:00,36.0,36.0,-100.00,SW,232,1.0,3.0,100,0.02,,,0.04,0.000000,,2013-05-14 10:52:00,
2013-05-14 03:11:00,34.0,34.0,-100.00,NW,320,3.0,6.0,100,0.11,,,0.14,0.000000,,2013-05-14 11:11:00,
2013-05-14 03:21:00,34.0,34.0,-100.00,NW,320,3.0,6.0,100,0.11,,,0.14,0.000000,,2013-05-14 11:21:00,
2013-05-14 03:32:00,34.0,34.0,-100.00,NW,320,3.0,6.0,100,0.11,,,0.14,0.000000,,2013-05-14 11:32:00,
2013-05-14 03:43:00,34.0,34.0,-100.00,NW,320,3.0,6.0,100,0.11,,,0.14,0.000000,,2013-05-14 11:43:00,
2013-05-14 03:52:00,34.0,34.0,-100.00,NW,320,3.0,6.0,100,0.11,,,0.14,0.000000,,2013-05-14 11:52:00,
2013-05-14 04:21:00,34.0,34.0,-100.00,NNW,342,6.0,10.0,100,0.02,,,0.16,0.000000,,2013-05-14 12:21:00,
2013-05-14 04:32:00,34.0,34.0,-100.00,NNW,342,6.0,10.0,100,0.02,,,0.16,0.000000,,2013-05-14 12:32:00,
2013-05-14 04:42:00,34.0,34.0,-100.00,NNW,342,6.0,10.0,100,0.02,,,0.16,0.000000,,2013-05-14 12:42:00,
2013-05-14 04:51:00,34.0,34.0,-100.00,NNW,342,6.0,10.0,100,0.02,,,0.16,0.000000,,2013-05-14 12:51:00,
2013-05-14 05:22:00,33.0,31.0,-100.00,NNW,332,2.0,9.0,91,0.00,,,0.16,0.000000,,2013-05-14 13:22:00,
2013-05-14 05:32:00,33.0,31.0,-100.00,NNW,332,2.0,9.0,91,0.00,,,0.16,0.000000,,2013-05-14 13:32:00,
2013-05-14 05:41:00,33.0,31.0,-100.00,NNW,332,2.0,9.0,91,0.00,,,0.16,0.000000,,2013-05-14 13:41:00,
2013-05-14 05:52:00,33.0,31.0,-100.00,NNW,332,2.0,9.0,91,0.00,,,0.16,0.000000,,2013-05-14 13:52:00,
2013-05-14 06:22:00,33.0,33.0,-100.00,NW,316,2.0,4.0,100,0.00,,,0.16,1.000000,,2013-05-14 14:22:00,
2013-05-14 06:31:00,33.0,33.0,-100.00,NW,316,2.0,4.0,100,0.00,,,0.16,1.000000,,2013-05-14 14:31:00,
2013-05-14 06:41:00,33.0,33.0,-100.00,NW,316,2.0,4.0,100,0.00,,,0.16,1.000000,,2013-05-14 14:41:00,
2013-05-14 06:52:00,33.0,33.0,-100.00,NW,316,2.0,4.0,100,0.00,,,0.16,1.000000,,2013-05-14 14:52:00,
2013-05-14 07:12:00,33.0,30.0,-100.00,NW,305,3.0,5.0,88,0.00,,,-99.99,17.000000,,2013-05-14 15:12:00,
2013-05-14 07:21:00,33.0,30.0,-100.00,NW,305,3.0,5.0,88,0.00,,,-99.99,17.000000,,2013-05-14 15:21:00,
2013-05-14 07:32:00,33.0,30.0,-100.00,NW,305,3.0,5.0,88,0.00,,,-99.99,17.000000,,2013-05-14 15:32:00,
2013-05-14 07:43:00,33.0,30.0,-100.00,NW,305,3.0,5.0,88,0.00,,,-99.99,17.000000,,2013-05-14 15:43:00,
2013-05-14 07:53:00,33.0,30.0,-100.00,NW,305,3.0,5.0,88,0.00,,,-99.99,17.000000,,2013-05-14 15:53:00,
2013-05-14 07:54:00,36.0,33.0,-100.00,WNW,297,1.0,4.0,87,0.00,,,0.16,64.000000,,2013-05-14 15:54:00,
2013-05-14 08:12:00,36.0,33.0,-100.00,WNW,297,1.0,4.0,87,0.00,,,0.16,64.000000,,2013-05-14 16:12:00,
2013-05-14 08:23:00,36.0,33.0,-100.00,WNW,297,1.0,4.0,87,0.00,,,0.16,64.000000,,2013-05-14 16:23:00,
2013-05-14 08:33:00,36.0,33.0,-100.00,WNW,297,1.0,4.0,87,0.00,,,0.16,64.000000,,2013-05-14 16:33:00,
2013-05-14 08:43:00,36.0,33.0,-100.00,WNW,297,1.0,4.0,87,0.00,,,0.16,64.000000,,2013-05-14 16:43:00,
2013-05-14 09:13:00,38.0,33.0,-100.00,SSW,206,0.0,3.0,82,0.01,,,0.17,111.000000,,2013-05-14 17:13:00,
2013-05-14 09:24:00,38.0,33.0,-100.00,SSW,206,0.0,3.0,82,0.01,,,0.17,111.000000,,2013-05-14 17:24:00,
2013-05-14 09:32:00,38.0,33.0,-100.00,SSW,206,0.0,3.0,82,0.01,,,0.17,111.000000,,2013-05-14 17:32:00,
2013-05-14 09:43:00,38.0,33.0,-100.00,SSW,206,0.0,3.0,82,0.01,,,0.17,111.000000,,2013-05-14 17:43:00,
2013-05-14 09:52:00,38.0,33.0,-100.00,SSW,206,0.0,3.0,82,0.01,,,0.17,111.000000,,2013-05-14 17:52:00,
2013-05-14 10:22:00,39.0,34.0,-100.00,SSE,161,2.0,6.0,81,0.00,,,0.17,184.000000,,2013-05-14 18:22:00,
2013-05-14 10:32:00,39.0,34.0,-100.00,SSE,161,2.0,6.0,81,0.00,,,0.17,184.000000,,2013-05-14 18:32:00,
2013-05-14 10:42:00,39.0,34.0,-100.00,SSE,161,2.0,6.0,81,0.00,,,0.17,184.000000,,2013-05-14 18:42:00,
2013-05-14 10:52:00,39.0,34.0,-100.00,SSE,161,2.0,6.0,81,0.00,,,0.17,184.000000,,2013-05-14 18:52:00,
2013-05-14 11:22:00,42.0,31.0,-100.00,SSE,152,5.0,9.0,64,0.00,,,0.17,442.000000,,2013-05-14 19:22:00,
2013-05-14 11:31:00,42.0,31.0,-100.00,SSE,152,5.0,9.0,64,0.00,,,0.17,442.000000,,2013-05-14 19:31:00,
2013-05-14 11:42:00,42.0,31.0,-100.00,SSE,152,5.0,9.0,64,0.00,,,0.17,442.000000,,2013-05-14 19:42:00,
2013-05-14 11:52:00,42.0,31.0,-100.00,SSE,152,5.0,9.0,64,0.00,,,0.17,442.000000,,2013-05-14 19:52:00,
2013-05-14 12:11:00,42.0,31.0,-100.00,SSE,157,5.0,11.0,64,0.00,,,0.17,668.000000,,2013-05-14 20:11:00,
2013-05-14 12:23:00,42.0,31.0,-100.00,SSE,157,5.0,11.0,64,0.00,,,0.17,668.000000,,2013-05-14 20:23:00,
2013-05-14 12:32:00,42.0,31.0,-100.00,SSE,157,5.0,11.0,64,0.00,,,0.17,668.000000,,2013-05-14 20:32:00,
2013-05-14 12:44:00,42.0,31.0,-100.00,SSE,157,5.0,11.0,64,0.00,,,0.17,668.000000,,2013-05-14 20:44:00,
2013-05-14 12:51:00,42.0,31.0,-100.00,SSE,157,5.0,11.0,64,0.00,,,0.17,668.000000,,2013-05-14 20:51:00,
2013-05-14 13:12:00,44.0,30.0,-100.00,SSE,151,8.0,11.0,58,0.00,,,0.17,626.000000,,2013-05-14 21:12:00,
2013-05-14 13:22:00,44.0,30.0,-100.00,SSE,151,8.0,11.0,58,0.00,,,0.17,626.000000,,2013-05-14 21:22:00,
2013-05-14 13:33:00,44.0,30.0,-100.00,SSE,151,8.0,11.0,58,0.00,,,0.17,626.000000,,2013-05-14 21:33:00,
2013-05-14 13:42:00,44.0,30.0,-100.00,SSE,151,8.0,11.0,58,0.00,,,0.17,626.000000,,2013-05-14 21:42:00,
2013-05-14 13:52:00,44.0,30.0,-100.00,SSE,151,8.0,11.0,58,0.00,,,0.17,626.000000,,2013-05-14 21:52:00,
2013-05-14 13:54:00,44.0,27.0,-100.00,SSE,152,9.0,15.0,51,0.00,,,0.17,710.000000,,2013-05-14 21:54:00,
2013-05-14 14:13:00,44.0,27.0,-100.00,SSE,152,9.0,15.0,51,0.00,,,0.17,710.000000,,2013-05-14 22:13:00,
2013-05-14 14:24:00,44.0,27.0,-100.00,SSE,152,9.0,15.0,51,0.00,,,0.17,710.000000,,2013-05-14 22:24:00,
2013-05-14 14:34:00,44.0,27.0,-100.00,SSE,152,9.0,15.0,51,0.00,,,0.17,710.000000,,2013-05-14 22:34:00,
2013-05-14 14:45:00,44.0,27.0,-100.00,SSE,152,9.0,15.0,51,0.00,,,0.17,710.000000,,2013-05-14 22:45:00,
2013-05-14 15:21:00,44.0,25.0,-100.00,SSE,158,9.0,15.0,47,0.00,,,0.17,814.000000,,2013-05-14 23:21:00,
2013-05-14 15:31:00,44.0,25.0,-100.00,SSE,158,9.0,15.0,47,0.00,,,0.17,814.000000,,2013-05-14 23:31:00,
2013-05-14 15:44:00,44.0,25.0,-100.00,SSE,158,9.0,15.0,47,0.00,,,0.17,814.000000,,2013-05-14 23:44:00,
2013-05-14 15:52:00,44.0,25.0,-100.00,SSE,158,9.0,15.0,47,0.00,,,0.17,814.000000,,2013-05-14 23:52:00,
2013-05-14 16:21:00,43.0,28.0,-100.00,South,175,6.0,14.0,54,0.00,,,0.17,335.000000,,2013-05-15 00:21:00,
2013-05-14 16:32:00,43.0,28.0,-100.00,South,175,6.0,14.0,54,0.00,,,0.17,335.000000,,2013-05-15 00:32:00,
2013-05-14 16:41:00,43.0,28.0,-100.00,South,175,6.0,14.0,54,0.00,,,0.17,335.000000,,2013-05-15 00:41:00,
2013-05-14 16:51:00,43.0,28.0,-100.00,South,175,6.0,14.0,54,0.00,,,0.17,335.000000,,2013-05-15 00:51:00,
2013-05-14 17:21:00,44.0,19.0,-100.00,WSW,242,5.0,13.0,36,0.00,,,0.17,436.000000,,2013-05-15 01:21:00,
2013-05-14 17:31:00,44.0,19.0,-100.00,WSW,242,5.0,13.0,36,0.00,,,0.17,436.000000,,2013-05-15 01:31:00,
2013-05-14 17:42:00,44.0,19.0,-100.00,WSW,242,5.0,13.0,36,0.00,,,0.17,436.000000,,2013-05-15 01:42:00,
2013-05-14 17:52:00,44.0,19.0,-100.00,WSW,242,5.0,13.0,36,0.00,,,0.17,436.000000,,2013-05-15 01:52:00,
2013-05-14 18:11:00,45.0,25.0,-100.00,SSE,153,5.0,11.0,45,0.00,,,0.17,429.000000,,2013-05-15 02:11:00,
2013-05-14 18:21:00,45.0,25.0,-100.00,SSE,153,5.0,11.0,45,0.00,,,0.17,429.000000,,2013-05-15 02:21:00,
2013-05-14 18:31:00,45.0,25.0,-100.00,SSE,153,5.0,11.0,45,0.00,,,0.17,429.000000,,2013-05-15 02:31:00,
2013-05-14 18:42:00,45.0,25.0,-100.00,SSE,153,5.0,11.0,45,0.00,,,0.17,429.000000,,2013-05-15 02:42:00,
2013-05-14 18:51:00,45.0,25.0,-100.00,SSE,153,5.0,11.0,45,0.00,,,0.17,429.000000,,2013-05-15 02:51:00,
2013-05-14 19:12:00,41.0,24.0,-100.00,SSE,161,9.0,16.0,50,0.00,,,-99.99,438.000000,,2013-05-15 03:12:00,
2013-05-14 19:21:00,41.0,24.0,-100.00,SSE,161,9.0,16.0,50,0.00,,,-99.99,438.000000,,2013-05-15 03:21:00,
2013-05-14 19:33:00,41.0,24.0,-100.00,SSE,161,9.0,16.0,50,0.00,,,-99.99,438.000000,,2013-05-15 03:33:00,
2013-05-14 19:44:00,41.0,24.0,-100.00,SSE,161,9.0,16.0,50,0.00,,,-99.99,438.000000,,2013-05-15 03:44:00,
2013-05-14 19:53:00,41.0,24.0,-100.00,SSE,161,9.0,16.0,50,0.00,,,-99.99,438.000000,,2013-05-15 03:53:00,
2013-05-14 20:23:00,40.0,26.0,-100.00,South,169,7.0,15.0,58,0.00,,,0.17,325.000000,,2013-05-15 04:23:00,
2013-05-14 20:33:00,40.0,26.0,-100.00,South,169,7.0,15.0,58,0.00,,,0.17,325.000000,,2013-05-15 04:33:00,
2013-05-14 20:42:00,40.0,26.0,-100.00,South,169,7.0,15.0,58,0.00,,,0.17,325.000000,,2013-05-15 04:42:00,
2013-05-14 20:52:00,40.0,26.0,-100.00,South,169,7.0,15.0,58,0.00,,,0.17,325.000000,,2013-05-15 04:52:00,
2013-05-14 21:22:00,38.0,24.0,-100.00,South,181,6.0,14.0,57,0.00,,,0.17,166.000000,,2013-05-15 05:22:00,
2013-05-14 21:32:00,38.0,24.0,-100.00,South,181,6.0,14.0,57,0.00,,,0.17,166.000000,,2013-05-15 05:32:00,
2013-05-14 21:42:00,38.0,24.0,-100.00,South,181,6.0,14.0,57,0.00,,,0.17,166.000000,,2013-05-15 05:42:00,
2013-05-14 21:52:00,38.0,24.0,-100.00,South,181,6.0,14.0,57,0.00,,,0.17,166.000000,,2013-05-15 05:52:00,
2013-05-14 22:11:00,34.0,20.0,-100.00,SW,221,2.0,10.0,57,0.00,,,0.17,36.000000,,2013-05-15 06:11:00,
2013-05-14 22:21:00,34.0,20.0,-100.00,SW,221,2.0,10.0,57,0.00,,,0.17,36.000000,,2013-05-15 06:21:00,
2013-05-14 22:31:00,34.0,20.0,-100.00,SW,221,2.0,10.0,57,0.00,,,0.17,36.000000,,2013-05-15 06:31:00,
2013-05-14 22:41:00,34.0,20.0,-100.00,SW,221,2.0,10.0,57,0.00,,,0.17,36.000000,,2013-05-15 06:41:00,
2013-05-14 22:51:00,34.0,20.0,-100.00,SW,221,2.0,10.0,57,0.00,,,0.17,36.000000,,2013-05-15 06:51:00,
2013-05-14 23:11:00,32.0,24.0,-100.00,WSW,239,3.0,4.0,73,0.00,,,0.17,7.000000,,2013-05-15 07:11:00,
2013-05-14 23:21:00,32.0,24.0,-100.00,WSW,239,3.0,4.0,73,0.00,,,0.17,7.000000,,2013-05-15 07:21:00,
2013-05-14 23:32:00,32.0,24.0,-100.00,WSW,239,3.0,4.0,73,0.00,,,0.17,7.000000,,2013-05-15 07:32:00,
2013-05-14 23:41:00,32.0,24.0,-100.00,WSW,239,3.0,4.0,73,0.00,,,0.17,7.000000,,2013-05-15 07:41:00,
2013-05-14 23:52:00,32.0,24.0,-100.00,WSW,239,3.0,4.0,73,0.00,,,0.17,7.000000,,2013-05-15 07:52:00,